[[{"header":{"parameterUnit":"m.s-1","parameterCategory":1,"la1":30.2991,"la2":30.254,"lo1":-89.0895,"lo2":-89.0444,"dy":0.0017,"dx":0.0017,"nx":28,"ny":28,"refTime":"2024-08-27T21:00:00:Z","depth":0,"parameterNumber":2,"parameterNumberName":"U-component_of_WINDS"},"data":[0,0,0,0,0,0,0,0,0,0,0,0,0,0,0,0,0,0,0,0,0,0,0,0,0,0,0,0,0,0,0,0,0,0,0,0,0,0,0,0,0,0,0,0,0,0,0,0,0,0,0,0,0,0,0,0,0,0,-2.7033,-2.7033,0,-2.6993,-2.6992,-2.6992,-2.6901,-2.6899,-2.6897,-2.6896,-2.6856,-2.6856,-2.6857,0,0,0,0,0,0,0,0,0,0,0,0,0,-2.7037,-2.7037,-2.7033,-2.7033,-2.7032,-2.6993,-2.6992,-2.6992,-2.6901,-2.6899,-2.6897,-2.6895,-2.6855,-2.6856,-2.6857,0,0,0,0,0,0,0,0,0,0,0,0,0,-2.702,-2.7037,-2.7034,-2.6983,-2.6978,-2.6993,-2.6992,-2.6991,-2.6902,-2.6899,-2.6896,-2.6894,-2.6855,-2.6856,-2.6857,-2.6919,0,0,-2.686,-2.686,0,0,0,0,0,0,0,0,-2.7021,-2.702,-2.6991,-2.6986,-2.6981,-2.6949,-2.6978,-2.6967,-2.6903,-2.6931,-2.6896,-2.6892,-2.6889,-2.6887,-2.6886,-2.6917,-2.6915,-2.686,-2.6861,-2.6861,-2.6861,0,0,0,0,0,0,0,-2.7022,-2.7021,-2.7017,-2.699,-2.6984,-2.6963,-2.6958,-2.6976,-2.6926,-2.6928,-2.6921,-2.6918,-2.6886,-2.6885,-2.6884,-2.6915,-2.686,-2.6861,-2.6862,-2.6862,-2.6999,-2.7002,0,0,0,0,0,0,-2.703,-2.7023,-2.7019,-2.7016,-2.6994,-2.6965,-2.6959,-2.6962,-2.6926,-2.6917,-2.692,-2.6914,-2.6884,-2.6883,-2.6882,-2.6955,-2.6861,-2.6862,-2.6863,-2.6996,-2.7,-2.7003,0,0,0,0,0,0,-2.7031,-2.7031,-2.702,-2.7018,-2.7015,-2.6968,-2.6972,-2.6963,-2.6962,-2.692,-2.691,-2.6928,-2.6882,-2.6881,-2.6911,-2.6952,-2.6863,-2.6863,-2.6993,-2.6997,-2.7002,-2.7099,0,0,0,0,0,0,-2.7031,-2.7031,-2.7053,-2.7019,-2.7015,-2.7049,-2.6975,-2.6964,-2.6963,-2.6954,-2.6925,-2.6917,-2.688,-2.691,-2.6912,-2.6952,-2.6864,-2.6989,-2.6995,-2.7,-2.7092,-2.7107,-2.7119,0,0,0,0,0,-2.7032,-2.7082,-2.7055,-2.7055,-2.7041,-2.7051,-2.7049,-2.7005,-2.6967,-2.699,-2.6963,-2.6918,-2.6947,-2.6914,-2.6916,-2.6956,-2.6986,-2.6993,-2.7,-2.7086,-2.7104,-2.7119,0,0,0,0,0,0,-2.7122,-2.7076,-2.7046,-2.7086,-2.7074,-2.7036,-2.7063,-2.7025,-2.7023,-2.7015,-2.696,-2.6955,-2.6993,-2.6977,-2.6941,-2.7016,-2.696,-2.6967,-2.7025,-2.7041,-2.7055,-2.7058,-2.6865,0,0,0,0,0,-2.7147,-2.7158,-2.7118,-2.7157,-2.7153,-2.7109,-2.7112,-2.7079,-2.7064,-2.7058,-2.7034,-2.7022,-2.7029,-2.7034,-2.7037,-2.709,-2.7084,-2.7119,-2.7132,-2.7143,-2.7151,-2.7181,-2.7197,-2.7026,-2.7026,-2.7026,0,0,-2.7198,-2.7174,-2.7184,-2.7175,-2.7161,-2.7176,-2.7105,-2.7122,-2.7133,-2.7061,-2.7089,-2.7071,-2.7054,-2.7097,-2.7114,-2.7085,-2.7197,-2.7152,-2.7161,-2.7162,-2.719,-2.7206,-2.722,-2.703,-2.703,-2.7029,0,0,-2.7298,-2.728,-2.7313,-2.7302,-2.7282,-2.7254,-2.7262,-2.7231,-2.7217,-2.7244,-2.7191,-2.7204,-2.7215,-2.7207,-2.7204,-2.7306,-2.7265,-2.7309,-2.7379,-2.7409,-2.7422,-2.7434,-2.7473,-2.7487,-2.7316,-2.7316,-2.7316,0,-2.7364,-2.7382,-2.7335,-2.7357,-2.7355,-2.7292,-2.7326,-2.7317,-2.73,-2.7301,-2.7269,-2.7285,-2.7268,-2.731,-2.7335,-2.7334,-2.7344,-2.7312,-2.7424,-2.7435,-2.7446,-2.7482,-2.7497,-2.7322,-2.7321,-2.732,-2.732,0,-2.7466,-2.748,-2.7509,-2.7496,-2.7497,-2.7525,-2.7484,-2.7492,-2.746,-2.7436,-2.7467,-2.7445,-2.7445,-2.7453,-2.7421,-2.7491,-2.7474,-2.7434,-2.7376,-2.7468,-2.7502,-2.7515,-2.733,-2.7328,-2.7326,-2.7325,0,0,-2.762,-2.7582,-2.7594,-2.7588,-2.7564,-2.7575,-2.7602,-2.7602,-2.7611,-2.7602,-2.7625,-2.7639,-2.7602,-2.7599,-2.7567,-2.7593,-2.7679,-2.755,-2.7549,-2.7577,-2.7759,-2.779,-2.7807,-2.7652,-2.7655,-2.7657,-2.7761,0,-2.7716,-2.7758,-2.7718,-2.7769,-2.7783,-2.7725,-2.7748,-2.7738,-2.7717,-2.7727,-2.7704,-2.7715,-2.7665,-2.7663,-2.7687,-2.7664,-2.7715,-2.7655,-2.7675,-2.7676,-2.7682,-2.7824,-2.7856,-2.7956,-2.7773,-2.7776,-2.7777,0,-2.7832,-2.7831,-2.7884,-2.786,-2.7864,-2.7886,-2.7885,-2.7895,-2.7883,-2.7866,-2.7865,-2.7826,-2.7853,-2.7797,-2.7835,-2.7795,-2.7801,-2.7791,-2.7794,-2.7795,-2.7733,-2.7831,-2.7986,-2.8002,-2.7797,-2.7795,-2.7794,0,-2.7943,-2.7954,-2.7987,-2.7984,-2.7957,-2.7974,-2.7963,-2.7948,-2.7952,-2.7952,-2.7955,-2.7957,-2.7959,-2.7964,-2.7928,-2.789,-2.7972,-2.7912,-2.7961,-2.7962,-2.7981,-2.798,-2.8141,-2.7983,-2.7982,-2.7982,-2.7982,0,-2.8054,-2.809,-2.8037,-2.8058,-2.8097,-2.8052,-2.8092,-2.8075,-2.8063,-2.8082,-2.8031,-2.805,-2.8001,-2.8015,-2.7988,-2.8025,-2.8026,-2.8015,-2.8008,-2.802,-2.8022,-2.8024,-2.8017,-2.7986,-2.7985,-2.7984,-2.7984,0,-2.8183,-2.8149,-2.8183,-2.8155,-2.8149,-2.818,-2.8156,-2.8176,-2.8153,-2.8177,-2.818,-2.8144,-2.8159,-2.8124,-2.8133,-2.8115,-2.817,-2.815,-2.8174,-2.8169,-2.8221,-2.8217,-2.8389,-2.8411,-2.8237,-2.8239,-2.824,0,-2.8257,-2.8284,-2.8259,-2.8268,-2.8261,-2.8275,-2.828,-2.8237,-2.8244,-2.8235,-2.8257,-2.8267,-2.8273,-2.83,-2.8276,-2.8284,-2.8266,-2.8326,-2.8266,-2.828,-2.8269,-2.8269,-2.8273,-2.8338,-2.834,-2.8342,-2.8343,0,-2.8393,-2.8376,-2.8384,-2.8388,-2.8396,-2.8396,-2.8393,-2.8404,-2.8359,-2.837,-2.8385,-2.839,-2.8401,-2.8413,-2.8417,-2.8407,-2.8369,-2.8362,-2.8374,-2.8388,-2.8402,-2.8398,-2.8209,-2.8358,-2.8357,-2.8356,-2.8355,-2.8354,-2.8498,-2.852,-2.8508,-2.852,-2.8514,-2.8513,-2.8532,-2.8512,-2.8523,-2.8529,-2.8503,-2.8525,-2.8516,-2.8516,-2.8512,-2.8529,-2.8502,-2.8519,-2.8524,-2.8529,-2.8539,-2.8399,-2.8529,-2.8529,-2.8528,-2.8528,-2.8528,0,-2.8633,-2.8623,-2.8635,-2.8634,-2.8644,-2.8608,-2.8604,-2.8616,-2.8635,-2.8629,-2.8637,-2.8657,-2.867,-2.8648,-2.8658,-2.8676,-2.8659,-2.8681,-2.8679,-2.8679,-2.8561,-2.855,-2.8694,-2.8694,-2.8694,-2.8694,-2.8694,-2.8694,-2.8705,-2.8741,-2.8723,-2.8758,-2.8747,-2.8768,-2.8769,-2.877,-2.8766,-2.879,-2.88,-2.8786,-2.8775,-2.8784,-2.8796,-2.8789,-2.8796,-2.8824,-2.8812,-2.8703,-2.8686,-2.8671,-2.8661,-2.8826,-2.8826,-2.8928,-2.8929,-2.893]},{"header":{"parameterUnit":"m.s-1","parameterCategory":1,"la1":30.2991,"la2":30.254,"lo1":-89.0895,"lo2":-89.0444,"dy":0.0017,"dx":0.0017,"nx":28,"ny":28,"refTime":"2024-08-27T21:00:00:Z","depth":0,"parameterNumber":3,"parameterNumberName":"V-component_of_WINDS"},"data":[0,0,0,0,0,0,0,0,0,0,0,0,0,0,0,0,0,0,0,0,0,0,0,0,0,0,0,0,0,0,0,0,0,0,0,0,0,0,0,0,0,0,0,0,0,0,0,0,0,0,0,0,0,0,0,0,0,0,2.4759,2.476,0,2.4802,2.4803,2.4803,2.4818,2.4818,2.4818,2.4818,2.4858,2.4859,2.486,0,0,0,0,0,0,0,0,0,0,0,0,0,2.4683,2.4684,2.4759,2.476,2.476,2.4802,2.4803,2.4804,2.4818,2.4818,2.4818,2.4818,2.4857,2.4859,2.486,0,0,0,0,0,0,0,0,0,0,0,0,0,2.472,2.4685,2.4759,2.4773,2.4774,2.4802,2.4803,2.4804,2.4818,2.4818,2.4818,2.4818,2.4857,2.4858,2.486,2.4876,0,0,2.4866,2.4867,0,0,0,0,0,0,0,0,2.4718,2.4723,2.477,2.4772,2.4774,2.4805,2.4791,2.4828,2.4818,2.4801,2.4818,2.4818,2.484,2.4843,2.4852,2.4878,2.488,2.4866,2.4867,2.4868,2.4868,0,0,0,0,0,0,0,2.4715,2.4721,2.4776,2.4771,2.4773,2.4775,2.478,2.4798,2.4821,2.4803,2.4804,2.4809,2.4841,2.485,2.4853,2.488,2.4866,2.4867,2.4869,2.4869,2.492,2.492,0,0,0,0,0,0,2.4711,2.4719,2.4775,2.4777,2.4745,2.4776,2.4782,2.4795,2.4821,2.4825,2.4809,2.481,2.4847,2.485,2.4854,2.4873,2.4868,2.4869,2.4871,2.4919,2.492,2.492,0,0,0,0,0,0,2.471,2.4716,2.4773,2.4748,2.4756,2.4778,2.4792,2.4796,2.4805,2.4826,2.483,2.4815,2.4847,2.4852,2.487,2.4875,2.487,2.4872,2.4919,2.492,2.492,2.4913,0,0,0,0,0,0,2.4707,2.4715,2.4723,2.4749,2.4757,2.479,2.4793,2.4797,2.4809,2.481,2.4832,2.4836,2.4847,2.4868,2.4872,2.4877,2.4873,2.4919,2.4919,2.492,2.4913,2.4913,2.4913,0,0,0,0,0,2.4705,2.4719,2.4724,2.473,2.4768,2.4791,2.4795,2.481,2.4809,2.4816,2.4829,2.4835,2.4874,2.4869,2.4875,2.4881,2.4919,2.4919,2.492,2.4913,2.4913,2.4913,0,0,0,0,0,0,2.4692,2.4723,2.4728,2.4752,2.4769,2.4793,2.4803,2.4809,2.4826,2.4826,2.4841,2.4846,2.4863,2.4874,2.4868,2.4896,2.4896,2.4898,2.4889,2.4889,2.489,2.4887,2.4875,0,0,0,0,0,2.4693,2.4711,2.4735,2.4753,2.4762,2.4781,2.4791,2.4801,2.4818,2.4825,2.484,2.4855,2.4871,2.4881,2.4896,2.4914,2.4918,2.492,2.492,2.4921,2.4922,2.493,2.4931,2.4922,2.4922,2.4922,0,0,2.4693,2.4712,2.4722,2.4751,2.4766,2.4782,2.4787,2.4804,2.4816,2.4827,2.4846,2.4857,2.4875,2.4893,2.4902,2.4903,2.4925,2.4921,2.4921,2.4922,2.4931,2.4932,2.4932,2.4922,2.4922,2.4922,0,0,2.4702,2.4719,2.4735,2.4749,2.4771,2.4783,2.4787,2.481,2.4818,2.4838,2.4846,2.4859,2.4886,2.4898,2.4908,2.4919,2.4925,2.4924,2.4925,2.4933,2.4933,2.4934,2.4937,2.4938,2.4925,2.4925,2.4925,0,2.47,2.4726,2.4742,2.4759,2.4771,2.4783,2.4798,2.481,2.4835,2.4842,2.4843,2.4876,2.4889,2.4909,2.4912,2.492,2.4923,2.4921,2.4932,2.4933,2.4934,2.4937,2.4938,2.4925,2.4925,2.4925,2.4925,0,2.4721,2.4739,2.4749,2.4775,2.4787,2.4803,2.4819,2.483,2.4837,2.4849,2.4867,2.4883,2.4901,2.4907,2.4914,2.4928,2.4927,2.493,2.493,2.4934,2.4937,2.4939,2.4924,2.4924,2.4924,2.4924,0,0,2.4725,2.4758,2.4761,2.4772,2.4796,2.4809,2.4824,2.4844,2.4852,2.4868,2.488,2.4902,2.4904,2.4915,2.4923,2.493,2.4937,2.4932,2.4932,2.4932,2.4951,2.4949,2.495,2.494,2.494,2.4941,2.4949,0,2.4736,2.4766,2.478,2.4803,2.4818,2.4829,2.4842,2.4857,2.4867,2.4881,2.4892,2.4906,2.4909,2.4915,2.4923,2.4934,2.4941,2.4934,2.495,2.495,2.4945,2.4952,2.495,2.4957,2.4951,2.4951,2.4951,0,2.4754,2.4772,2.4796,2.4817,2.4824,2.4836,2.4853,2.4867,2.4883,2.489,2.4901,2.4909,2.4923,2.4922,2.4941,2.4936,2.4943,2.495,2.495,2.4952,2.4951,2.4953,2.496,2.4961,2.4953,2.4953,2.4953,0,2.4753,2.4783,2.4801,2.481,2.4835,2.4842,2.4853,2.4869,2.4879,2.4893,2.49,2.4915,2.4924,2.4935,2.4946,2.4944,2.4963,2.4963,2.4968,2.4968,2.4971,2.4971,2.4979,2.4976,2.4976,2.4976,2.4976,0,2.4765,2.4779,2.4801,2.4812,2.4827,2.4842,2.4856,2.4867,2.4881,2.4893,2.4902,2.4913,2.4927,2.4939,2.4947,2.4961,2.4965,2.4969,2.4972,2.4969,2.4968,2.4973,2.4973,2.4977,2.4977,2.4977,2.4977,0,2.4766,2.4782,2.4802,2.4824,2.4829,2.484,2.4858,2.4868,2.4878,2.4893,2.4897,2.4913,2.4927,2.494,2.4958,2.4964,2.4977,2.498,2.4972,2.4973,2.4977,2.4976,2.4988,2.499,2.4987,2.4987,2.4987,0,2.4773,2.4784,2.4807,2.4816,2.4827,2.4842,2.4852,2.4866,2.4876,2.4894,2.4901,2.4917,2.493,2.4951,2.4964,2.4977,2.498,2.4983,2.4982,2.4978,2.4979,2.4978,2.4979,2.4983,2.4983,2.4983,2.4983,0,2.4781,2.4788,2.4803,2.4821,2.4833,2.4847,2.4861,2.4868,2.4884,2.4894,2.491,2.492,2.4939,2.4953,2.4968,2.4976,2.4982,2.4983,2.4985,2.4982,2.4977,2.4979,2.4972,2.4983,2.4983,2.4983,2.4983,2.4983,2.4785,2.4795,2.4813,2.4829,2.4841,2.4854,2.4864,2.4876,2.4889,2.4907,2.4913,2.4929,2.4942,2.4963,2.4972,2.4983,2.4984,2.4986,2.4987,2.4987,2.4986,2.4975,2.4985,2.4985,2.4985,2.4985,2.4986,0,2.4794,2.4805,2.482,2.484,2.4852,2.4857,2.4873,2.4882,2.4896,2.4909,2.4922,2.4938,2.4952,2.4965,2.4979,2.4985,2.4987,2.4988,2.4987,2.4989,2.4985,2.4982,2.4985,2.4985,2.4985,2.4985,2.4985,2.4985,2.4799,2.4816,2.4825,2.4847,2.4858,2.4874,2.4882,2.4893,2.4904,2.4923,2.4934,2.4943,2.4956,2.497,2.4982,2.4986,2.499,2.499,2.4993,2.4989,2.4989,2.4989,2.4986,2.499,2.499,2.4996,2.4996,2.4996]}]]